User: anonymous   Login
Location: *
(43.9905°S, 176.4941°W)
Time: 07:52:29
(UTC+00:00)
Language:

Cosmos 1833 Rocket - Orbit

View from above orbital plane
View from above orbital plane
View from above satellite
View from above satellite

Ground track
Ground track

The orbit data is extracted from the following two-line orbital elements,

1 17590U 87027B   20049.87446281 +.00000100 +00000-0 +73994-4 0  9998
2 17590 070.9995 253.2318 0007284 257.8095 102.2212 14.16781258702220
Epoch (UTC): 18 February 2020 20:59:13
Eccentricity: 0.0007284
inclination: 70.9995°
perigee height: 831 km
apogee height: 841 km
right ascension of ascending node: 253.2318°
argument of perigee: 257.8095°
revolutions per day: 14.16781258
mean anomaly at epoch: 102.2212°
orbit number at epoch: 70222

The dashed part of the orbit path shows where the satellite is in the earth's shadow,  

DLR